IRIDIUM 33 DEB, 35297

Orbit data source: Space-Track

IRIDIUM 33 DEB, 35297 is space debris in LEO originally from a launch on Sun, 14 Sep 1997 UTC launched from the Tyuratam Missile And Space Complex (TTMTR). The debris from Iridium 33, an American commercial communications satellite, has been tracked extensively since its accidental collision with the defunct Russian satellite Cosmos 2251 in 2009. This event, occurring at high speed in low Earth orbit (LEO), generated thousands of pieces of space debris, significantly increasing the risk of further collisions. The Iridium 33 debris cloud has impacted space traffic management and orbital debris mitigation strategies, making it a subject of ongoing study in space situational awareness.

Loading next visibility...
Identifier
35297, 1997-051PM
Orbit
LEO
Country
Flag of USUS
Related business
Manufacturer
Unknown
Mission
Spacecraft
Bus & Motor
Unknown
Mass
Unknown
Launch date (UTC)
1997-09-14 (28 years ago)
Launch vehicle
Unknown
Launch site
Tyuratam Missile And Space Complex (TTMTR)
Object type
Payload
Rocket body
Debris
Shape & HBR
Unknown shape, 0.1 m
Radar Cross Section
Small (<0.1 m²)

Expand to show TLE details & history
Last TLE update: 2 days ago

TLE from 2 days ago
0 IRIDIUM 33 DEB
1 35297U 97051PM  25348.53860275  .00002241  00000-0  63362-3 0  9998
2 35297  86.3867  61.9926 0017628 135.2135 225.0494 14.45168041704521
Epoch: 2025-12-14T12:55Z
TLE epoch observation values (Epoch: 2025-12-14T12:55:35.277Z)
Latitude
0.00001°
Longitude
144.64554°
Altitude
753.42 km
Speed
7.473 km/s
True Right ascension
04h 07m 58s
True Declination
0° 00' 00"
Sunlit
Object was in full shadow at epoch
Visualization orbit readout
Latitude
Unknown
Longitude
Unknown
Altitude
Unknown
Speed
Unknown
Apparent Right ascension
Unknown
Apparent Declination
Unknown
Sunlit
N/A
Visualization observer readout
Local Sidereal Time
19:12:56
Azimuth
Unknown
Elevation
Unknown
Doppler factor
Unknown
Orbital elements
Apogee altitude
750.968 km
Perigee altitude
725.878 km
Semi-major axis
7,116.56 km
Eccentricity
0.00176
Inclination
86.3867°
RAAN
61.9926°
Arg. of periapsis
135.2135°
True anomaly
224.90666°
Mean anomaly
225.0494°
Eccentric anomaly
224.97801°
Mean motion
3.61525 °/min
Orbital period
99.58 mins
BSTAR
0.00063362
Loading maneuver chart data...
Computing Atmospheric mass density...

Documentation

Showing up to 5 results
|